[[{"header":{"parameterUnit":"m.s-1","parameterCategory":1,"la1":30.2991,"la2":30.254,"lo1":-89.0895,"lo2":-89.0444,"dy":0.0017,"dx":0.0017,"nx":28,"ny":28,"refTime":"2025-07-12T03:00:00:Z","depth":0,"parameterNumber":2,"parameterNumberName":"U-component_of_WINDS"},"data":[0,0,0,0,0,0,0,0,0,0,0,0,0,0,0,0,0,0,0,0,0,0,0,0,0,0,0,0,0,0,0,0,0,0,0,0,0,0,0,0,0,0,0,0,0,0,0,0,0,0,0,0,0,0,0,0,0,0,0.6598,0.66,0,0.6717,0.6718,0.672,0.6746,0.6746,0.6745,0.6744,0.687,0.6874,0.6878,0,0,0,0,0,0,0,0,0,0,0,0,0,0.6398,0.6401,0.6598,0.66,0.6601,0.6717,0.6718,0.672,0.6747,0.6746,0.6744,0.6743,0.6868,0.6873,0.6878,0,0,0,0,0,0,0,0,0,0,0,0,0,0.6498,0.6403,0.6598,0.6628,0.6632,0.6716,0.6718,0.6721,0.6747,0.6745,0.6744,0.6743,0.6867,0.6873,0.6879,0.6943,0,0,0.6898,0.6901,0,0,0,0,0,0,0,0,0.6492,0.6505,0.6622,0.6626,0.6631,0.6715,0.6694,0.6795,0.6747,0.6703,0.6744,0.6742,0.682,0.683,0.6855,0.6949,0.6954,0.6899,0.6902,0.6905,0.6907,0,0,0,0,0,0,0,0.6485,0.65,0.6645,0.6624,0.6629,0.6637,0.665,0.6713,0.6768,0.6707,0.6709,0.6723,0.6822,0.6849,0.6858,0.6956,0.6898,0.6904,0.6908,0.691,0.7108,0.7109,0,0,0,0,0,0,0.6472,0.6494,0.6642,0.6649,0.6557,0.6642,0.6656,0.669,0.6767,0.6777,0.6724,0.6724,0.6839,0.6851,0.6863,0.6942,0.6905,0.6911,0.6914,0.7106,0.7108,0.711,0,0,0,0,0,0,0.6468,0.6485,0.6637,0.6572,0.6592,0.6646,0.6684,0.6693,0.672,0.6779,0.6789,0.6741,0.6838,0.6854,0.6922,0.6947,0.6914,0.6919,0.7105,0.7107,0.7109,0.7101,0,0,0,0,0,0,0.6462,0.6483,0.6507,0.6572,0.6595,0.6693,0.6686,0.6696,0.673,0.6731,0.6798,0.6808,0.6839,0.6913,0.6929,0.6955,0.6924,0.7103,0.7106,0.7108,0.71,0.7103,0.7106,0,0,0,0,0,0.6455,0.6502,0.6508,0.6526,0.6626,0.6695,0.6708,0.674,0.6732,0.6757,0.6795,0.6806,0.6942,0.692,0.6938,0.6966,0.7101,0.7105,0.7108,0.7098,0.7102,0.7106,0,0,0,0,0,0,0.644,0.6511,0.6519,0.6588,0.6635,0.6699,0.6732,0.6744,0.6795,0.6794,0.6834,0.6849,0.6915,0.6948,0.6922,0.7032,0.7021,0.7028,0.7008,0.7012,0.7015,0.7006,0.6929,0,0,0,0,0,0.6444,0.6493,0.6553,0.6608,0.6631,0.6677,0.6708,0.6729,0.678,0.68,0.6843,0.6893,0.6947,0.6981,0.7034,0.7105,0.712,0.7133,0.7136,0.7138,0.7144,0.7183,0.719,0.7121,0.7121,0.7121,0,0,0.6455,0.6499,0.6528,0.6606,0.6645,0.6695,0.6694,0.6747,0.6785,0.6809,0.6875,0.6909,0.6967,0.7036,0.7069,0.7065,0.7166,0.7143,0.7144,0.7149,0.7187,0.7194,0.72,0.7123,0.7123,0.7123,0,0,0.6499,0.6538,0.6587,0.6626,0.6684,0.6714,0.6726,0.6788,0.681,0.6877,0.6896,0.6942,0.7034,0.7075,0.7107,0.7166,0.7178,0.7182,0.7198,0.7236,0.7241,0.7246,0.7267,0.7274,0.7187,0.7187,0.7187,0,0.6505,0.658,0.6612,0.6664,0.6698,0.672,0.6771,0.6807,0.688,0.6903,0.6898,0.7013,0.7054,0.7132,0.7146,0.7172,0.7187,0.7174,0.7238,0.7243,0.7248,0.7268,0.7276,0.7187,0.7187,0.7187,0.7187,0,0.6584,0.6635,0.6669,0.6736,0.6774,0.6826,0.6866,0.6901,0.6919,0.695,0.7018,0.7067,0.713,0.715,0.7169,0.7232,0.7228,0.723,0.722,0.7254,0.7274,0.7281,0.7188,0.7187,0.7187,0.7187,0,0,0.6622,0.6706,0.6718,0.6748,0.6814,0.6855,0.6907,0.6967,0.6996,0.7045,0.709,0.7167,0.7169,0.7206,0.7229,0.7262,0.7304,0.726,0.7262,0.7266,0.7376,0.7373,0.7382,0.7313,0.7314,0.7315,0.7371,0,0.6674,0.6767,0.6797,0.6874,0.6923,0.6944,0.699,0.7035,0.7066,0.7112,0.7146,0.7199,0.7198,0.722,0.7254,0.7292,0.7327,0.7288,0.7356,0.7357,0.7339,0.7392,0.739,0.744,0.7379,0.738,0.7381,0,0.6747,0.6795,0.6877,0.6935,0.6956,0.6997,0.7054,0.7097,0.7149,0.7169,0.7209,0.723,0.7286,0.7273,0.7351,0.7324,0.7354,0.7377,0.7379,0.7387,0.7371,0.74,0.7457,0.7464,0.7393,0.7392,0.7391,0,0.6765,0.6852,0.6911,0.6937,0.7007,0.7034,0.7065,0.7116,0.7149,0.72,0.7222,0.7279,0.731,0.7353,0.7389,0.7376,0.7464,0.7454,0.7482,0.7481,0.75,0.7498,0.7561,0.7519,0.7519,0.7519,0.7519,0,0.682,0.6869,0.6921,0.6957,0.7013,0.7048,0.7102,0.7135,0.7179,0.7223,0.7246,0.7287,0.7331,0.7378,0.7407,0.7467,0.7481,0.7499,0.7506,0.7497,0.7494,0.7516,0.7513,0.7521,0.752,0.752,0.752,0,0.685,0.6887,0.6953,0.7013,0.7029,0.7068,0.712,0.7157,0.7187,0.7243,0.7258,0.7307,0.7363,0.7403,0.7476,0.7495,0.756,0.7567,0.7541,0.7545,0.7571,0.7567,0.765,0.7662,0.7612,0.7613,0.7613,0,0.6882,0.692,0.6983,0.7014,0.7044,0.7093,0.7127,0.7162,0.7197,0.7259,0.7288,0.7346,0.7394,0.7483,0.7526,0.7582,0.759,0.7615,0.7599,0.7588,0.759,0.7586,0.759,0.7617,0.7618,0.7618,0.7618,0,0.6935,0.6951,0.6998,0.7052,0.7091,0.7135,0.718,0.7204,0.7248,0.7286,0.7343,0.738,0.7453,0.751,0.757,0.7603,0.7618,0.7623,0.7632,0.7623,0.7606,0.7615,0.7548,0.7621,0.762,0.762,0.762,0.762,0.6967,0.7001,0.705,0.7102,0.7139,0.718,0.7217,0.7252,0.73,0.7362,0.738,0.744,0.7491,0.7572,0.7605,0.7653,0.7651,0.7665,0.7669,0.7671,0.767,0.7599,0.7664,0.7664,0.7664,0.7664,0.7664,0,0.702,0.7052,0.71,0.716,0.7201,0.721,0.726,0.7294,0.7345,0.7391,0.7437,0.7502,0.7557,0.7604,0.7661,0.769,0.7698,0.7704,0.7702,0.7709,0.7669,0.7655,0.7696,0.7696,0.7696,0.7696,0.7696,0.7696,0.7052,0.711,0.7132,0.7209,0.7242,0.7299,0.7326,0.7364,0.7401,0.7472,0.7517,0.7547,0.7593,0.7653,0.7704,0.7717,0.7737,0.774,0.7754,0.7716,0.7712,0.7709,0.7695,0.7745,0.7745,0.7791,0.7791,0.7791]},{"header":{"parameterUnit":"m.s-1","parameterCategory":1,"la1":30.2991,"la2":30.254,"lo1":-89.0895,"lo2":-89.0444,"dy":0.0017,"dx":0.0017,"nx":28,"ny":28,"refTime":"2025-07-12T03:00:00:Z","depth":0,"parameterNumber":3,"parameterNumberName":"V-component_of_WINDS"},"data":[0,0,0,0,0,0,0,0,0,0,0,0,0,0,0,0,0,0,0,0,0,0,0,0,0,0,0,0,0,0,0,0,0,0,0,0,0,0,0,0,0,0,0,0,0,0,0,0,0,0,0,0,0,0,0,0,0,0,2.0449,2.0449,0,2.043,2.043,2.0429,2.0459,2.046,2.0461,2.0462,2.0437,2.0435,2.0434,0,0,0,0,0,0,0,0,0,0,0,0,0,2.0505,2.0504,2.0449,2.0449,2.0448,2.043,2.0429,2.0429,2.0458,2.046,2.0461,2.0462,2.0438,2.0436,2.0434,0,0,0,0,0,0,0,0,0,0,0,0,0,2.0483,2.0504,2.0449,2.0461,2.0462,2.043,2.0429,2.0429,2.0458,2.046,2.0461,2.0463,2.0438,2.0436,2.0433,2.0387,0,0,2.0426,2.0425,0,0,0,0,0,0,0,0,2.0484,2.0481,2.0459,2.046,2.0461,2.0448,2.044,2.0415,2.0458,2.0459,2.0462,2.0464,2.0439,2.0437,2.043,2.0386,2.0385,2.0426,2.0424,2.0423,2.0423,0,0,0,0,0,0,0,2.0485,2.0482,2.0441,2.0459,2.046,2.0465,2.0464,2.0436,2.0441,2.0459,2.0461,2.0459,2.044,2.0432,2.0429,2.0385,2.0426,2.0424,2.0422,2.0421,2.0299,2.0298,0,0,0,0,0,0,2.0486,2.0483,2.0442,2.0441,2.0477,2.0463,2.0461,2.0451,2.0441,2.0441,2.0458,2.0461,2.0435,2.0432,2.0428,2.0372,2.0423,2.0421,2.042,2.0301,2.0299,2.0297,0,0,0,0,0,0,2.0487,2.0482,2.0443,2.0462,2.0458,2.0461,2.0448,2.0449,2.0442,2.044,2.044,2.0449,2.0436,2.0432,2.0397,2.0371,2.042,2.0418,2.0303,2.03,2.0298,2.0259,0,0,0,0,0,0,2.0489,2.0483,2.0467,2.0462,2.0456,2.0413,2.0447,2.0448,2.0438,2.0441,2.0432,2.0432,2.0437,2.04,2.0395,2.0369,2.0416,2.0305,2.0302,2.0299,2.0262,2.0255,2.0249,0,0,0,0,0,2.0491,2.0456,2.0466,2.0461,2.0437,2.0412,2.0408,2.0417,2.0436,2.0418,2.0417,2.0432,2.0376,2.0397,2.039,2.0363,2.0307,2.0303,2.0299,2.0265,2.0256,2.0249,0,0,0,0,0,0,2.0456,2.0455,2.0466,2.0429,2.042,2.0417,2.0395,2.0408,2.0392,2.0396,2.0406,2.0403,2.0365,2.0361,2.0385,2.0317,2.0344,2.0339,2.032,2.0312,2.0306,2.0306,2.0414,0,0,0,0,0,2.0445,2.0426,2.0426,2.0393,2.0388,2.0392,2.0382,2.0389,2.038,2.0376,2.0372,2.0361,2.034,2.0326,2.0308,2.0262,2.0259,2.024,2.0234,2.0228,2.0222,2.0195,2.0186,2.0284,2.0284,2.0284,0,0,2.0419,2.0417,2.0404,2.0386,2.038,2.0358,2.0389,2.0365,2.0348,2.0371,2.0338,2.0335,2.0323,2.0282,2.0264,2.0277,2.0195,2.0223,2.0219,2.0216,2.019,2.0181,2.0173,2.0281,2.0282,2.0282,0,0,2.0362,2.036,2.0331,2.0324,2.0315,2.0318,2.0311,2.0306,2.0305,2.0272,2.0288,2.0267,2.0233,2.0223,2.0213,2.0151,2.0162,2.0144,2.0108,2.0081,2.0074,2.0067,2.0042,2.0033,2.0139,2.0139,2.0139,0,2.0332,2.0302,2.0314,2.0289,2.0279,2.03,2.0269,2.0262,2.0247,2.0238,2.0254,2.021,2.0203,2.0159,2.0144,2.0136,2.0126,2.0144,2.0074,2.0068,2.0061,2.0037,2.0028,2.0137,2.0137,2.0137,2.0137,0,2.0263,2.0242,2.0219,2.0205,2.0193,2.0165,2.017,2.0156,2.0164,2.0165,2.0129,2.0123,2.0102,2.0092,2.01,2.0048,2.0056,2.0073,2.01,2.0049,2.0027,2.0018,2.0133,2.0134,2.0135,2.0135,0,0,2.0183,2.0175,2.0167,2.0159,2.0151,2.0133,2.0105,2.0086,2.0072,2.0061,2.0036,2.0005,2.002,2.0009,2.0016,1.9993,1.994,2.0012,2.0012,1.9997,1.9879,1.9864,1.9854,1.9949,1.9948,1.9946,1.9879,0,2.0124,2.0077,2.0087,2.004,2.0018,2.0038,2.0013,2.0004,2.0003,1.9984,1.9983,1.996,1.9983,1.9976,1.9955,1.9951,1.9916,1.9957,1.9923,1.9921,1.9922,1.9843,1.9828,1.9765,1.9871,1.9869,1.9868,0,2.0049,2.0035,1.9986,1.9979,1.9971,1.9948,1.993,1.9912,1.9901,1.9902,1.9889,1.99,1.9869,1.9899,1.9855,1.9882,1.9868,1.9865,1.9862,1.9857,1.989,1.9833,1.9745,1.9734,1.9855,1.9856,1.9857,0,1.9991,1.9961,1.9927,1.9921,1.9913,1.9896,1.9891,1.9882,1.9869,1.9853,1.9844,1.9824,1.9812,1.9796,1.9799,1.9821,1.9753,1.9784,1.975,1.975,1.9733,1.9734,1.9639,1.9729,1.9729,1.9729,1.973,0,1.9923,1.9892,1.9901,1.988,1.9845,1.9855,1.9819,1.9817,1.9808,1.9785,1.9801,1.9778,1.9786,1.9763,1.9766,1.9727,1.9722,1.972,1.9721,1.9717,1.9717,1.9707,1.971,1.9727,1.9727,1.9728,1.9728,0,1.9852,1.9858,1.9822,1.9817,1.9815,1.9789,1.9784,1.9762,1.9764,1.9734,1.9727,1.9728,1.9702,1.9704,1.9675,1.9676,1.9627,1.9635,1.9631,1.9632,1.9597,1.9599,1.9491,1.9475,1.9578,1.9577,1.9576,0,1.9807,1.9783,1.9776,1.9763,1.9757,1.9735,1.9722,1.9731,1.9717,1.9701,1.9681,1.9657,1.9637,1.9594,1.959,1.9567,1.9572,1.9535,1.9568,1.9564,1.9567,1.9568,1.9564,1.9528,1.9527,1.9526,1.9525,0,1.9725,1.9729,1.9711,1.9693,1.9677,1.9663,1.965,1.9638,1.9645,1.9628,1.9602,1.9587,1.9557,1.9531,1.9508,1.9501,1.9512,1.9515,1.9505,1.95,1.9498,1.9496,1.9611,1.9517,1.9518,1.9518,1.9519,1.9519,1.9664,1.9643,1.9634,1.9612,1.9604,1.9591,1.9571,1.9569,1.9548,1.9525,1.9532,1.9501,1.9488,1.946,1.945,1.9425,1.9438,1.9425,1.9421,1.9417,1.9411,1.9505,1.9421,1.9421,1.9422,1.9422,1.9422,0,1.958,1.9576,1.9556,1.9538,1.952,1.9535,1.9522,1.9505,1.9479,1.9467,1.9447,1.9416,1.9391,1.9385,1.936,1.934,1.9345,1.9333,1.9333,1.9331,1.9403,1.9412,1.933,1.933,1.933,1.933,1.933,1.933,1.9535,1.9499,1.9501,1.9461,1.9456,1.9428,1.9418,1.9405,1.9395,1.936,1.934,1.9337,1.9326,1.9301,1.9277,1.9276,1.9264,1.925,1.925,1.9317,1.9326,1.9335,1.9344,1.9248,1.9248,1.918,1.9179,1.9179]}]]